Wind_Speed
63 64 64 65 65 66 67 68 69 69 70 70 71 71 71 71 72 72 72 72 72 72 71 70 70 69 69 69 69 69 70 70 71 71 72 72 73 74 74 75 75 76 77 77 78 79 79 80 81 81 82 83 83 84 85 85 86 86 87 88 88 89 90 91 92 90 87 86 87 89 92 93 93 94 95 94 92 91 90 88 88 88 87 86 86
65 65 65 66 67 67 68 69 70 71 71 71 72 72 72 72 72 72 73 72 72 71 70 69 68 68 68 69 69 70 70 71 71 72 73 73 74 74 75 76 76 77 78 79 79 80 81 82 83 83 84 85 85 86 87 87 88 89 89 90 90 91 92 93 93 93 89 86 86 87 90 91 91 91 93 94 93 94 94 93 91 90 90 90 89
65 65 66 67 68 69 70 71 71 72 72 72 72 71 71 71 72 72 71 71 70 70 69 68 69 69 70 70 71 71 72 72 73 74 74 75 76 76 77 78 79 79 80 81 82 83 83 84 85 86 86 87 87 88 89 89 90 91 91 92 92 92 93 94 95 95 92 88 86 87 88 90 90 89 90 90 89 90 92 94 93 92 91 91 91
65 66 67 68 69 70 71 72 72 72 72 71 70 70 70 71 70 70 69 69 68 68 68 69 69 70 71 72 73 73 74 75 75 76 77 78 79 79 80 81 81 82 83 84 84 85 86 87 87 88 89 90 90 91 92 92 93 93 94 94 95 95 96 97 97 97 97 93 90 89 90 92 93 91 91 91 89 87 88 90 91 92 92 91 91
66 67 68 69 70 71 72 72 72 72 71 70 69 69 69 69 68 67 67 67 67 68 69 70 71 72 73 74 75 75 76 77 78 79 79 80 81 82 83 83 84 85 86 87 88 88 89 89 90 91 91 92 93 93 94 95 95 95 96 96 97 97 98 98 99 99 99 98 95 94 95 96 97 96 95 95 94 91 90 90 90 90 91 92 91
67 68 69 70 70 71 72 72 71 71 70 69 69 69 69 68 67 67 67 67 68 69 70 71 73 74 75 76 77 77 78 79 80 81 82 83 84 84 85 86 87 87 88 88 89 90 90 91 91 92 93 93 93 94 94 95 95 95 95 96 96 96 96 96 97 97 97 97 96 96 96 97 98 99 99 99 98 97 96 94 93 91 91 92 92
68 69 70 70 70 71 72 72 71 71 70 69 69 69 68 67 67 68 68 69 70 71 72 73 74 76 77 78 79 80 81 82 82 83 84 85 86 86 87 87 88 88 88 89 89 89 90 90 90 90 91 91 90 90 90 90 90 90 90 90 91 91 91 91 91 91 90 90 90 90 91 92 94 95 96 97 98 98 99 99 98 95 94 94 93
69 70 70 70 71 71 71 72 71 70 69 68 68 68 68 68 68 69 69 70 71 72 73 75 76 78 79 80 82 83 83 84 85 85 86 86 86 86 87 87 87 87 87 87 86 86 86 86 85 85 84 84 83 83 83 83 83 83 83 83 84 84 84 84 83 83 83 82 82 82 82 83 84 86 88 89 90 92 95 97 98 98 97 96 95
69 70 70 70 71 70 70 71 70 69 68 67 68 68 69 69 69 70 70 71 72 74 76 77 79 80 81 82 83 84 85 85 85 85 85 85 85 85 84 84 83 82 82 81 80 79 79 78 78 77 77 77 77 77 77 78 79 78 78 78 79 79 79 79 78 78 78 78 77 77 76 76 76 78 80 81 81 82 85 87 89 92 95 95 94
70 70 70 70 70 69 69 69 69 68 67 67 68 69 70 70 71 71 72 74 75 76 78 79 81 82 83 83 84 84 84 84 84 84 83 83 82 81 79 78 77 75 74 74 73 73 72 72 72 72 72 73 74 74 76 76 77 77 77 77 77 77 77 77 77 77 77 76 75 75 74 73 73 75 75 76 75 75 76 78 80 82 85 87 87
70 70 70 69 68 68 68 68 68 67 67 68 69 70 71 71 73 74 75 76 77 78 79 80 82 82 83 83 82 82 82 81 81 80 79 77 76 75 73 71 70 69 69 69 69 69 69 70 70 71 72 73 74 75 76 76 76 76 76 76 76 76 76 76 76 75 75 75 74 74 74 72 72 73 74 74 74 73 73 74 75 76 77 78 78
69 69 69 68 67 67 67 67 67 67 68 70 71 72 72 73 74 75 76 77 78 79 80 80 80 80 80 79 79 79 78 77 76 74 72 71 69 68 67 66 66 66 66 67 67 68 68 69 70 71 72 73 73 74 75 75 75 74 74 73 73 73 73 73 72 72 71 70 69 69 69 69 69 70 70 71 71 71 71 72 73 74 74 74 73
68 68 67 66 66 66 66 66 67 68 69 71 72 73 74 75 75 76 76 77 77 77 77 77 77 76 76 76 75 74 73 71 69 67 65 64 64 64 63 64 64 65 65 66 67 68 68 69 69 70 71 71 72 73 73 73 72 71 70 69 69 68 68 68 67 66 65 64 63 62 62 63 62 62 63 64 64 65 66 68 69 71 71 70 70
66 65 64 64 64 65 65 66 67 69 71 72 73 74 75 75 75 75 74 74 73 73 73 73 73 73 73 72 70 68 66 65 63 61 61 61 62 62 63 63 64 65 65 66 66 67 68 68 68 68 69 69 70 70 71 70 69 68 67 65 64 64 63 62 63 62 62 61 59 57 57 57 56 56 56 57 58 59 61 62 63 64 65 65 65
64 64 63 63 63 64 65 67 69 71 72 73 73 74 74 73 72 71 70 69 70 70 70 70 70 70 69 67 64 62 60 59 59 59 59 60 61 62 63 63 64 64 65 65 66 66 67 67 67 67 67 67 68 68 68 67 66 64 63 62 61 61 60 60 60 60 60 59 57 55 54 54 52 51 51 52 52 53 55 55 55 56 57 57 58
64 63 62 63 64 65 67 68 70 71 72 72 72 71 69 68 66 66 66 67 67 68 68 67 66 65 63 61 58 57 56 57 57 58 59 61 62 62 63 63 63 63 64 64 65 65 66 66 66 66 66 66 66 66 66 65 64 63 62 61 60 59 58 58 58 58 57 55 54 52 50 49 47 46 46 47 47 48 48 47 47 49 49 49 48
63 62 63 64 65 67 68 69 70 70 70 68 67 65 64 63 63 63 64 64 65 64 64 63 62 60 58 56 55 54 54 55 57 58 60 61 62 62 62 61 61 62 63 63 64 64 65 65 65 65 65 65 64 64 65 64 63 62 61 59 58 57 55 54 53 52 50 48 46 45 44 43 42 41 41 42 43 44 43 42 42 43 43 41 40
63 63 64 65 67 68 68 68 67 66 64 63 61 61 60 60 60 61 62 62 61 61 60 59 57 56 55 54 53 52 53 55 57 59 61 62 63 62 61 60 61 61 62 62 62 63 63 64 64 64 63 63 63 63 63 63 62 61 59 57 54 51 49 48 46 43 41 39 39 40 40 40 39 39 39 40 41 41 41 40 40 41 40 38 37
64 65 66 66 67 67 65 63 61 60 58 58 58 58 58 58 59 59 59 59 58 58 57 55 54 53 52 52 52 52 53 56 59 61 62 63 63 62 60 60 61 61 61 61 61 62 63 63 63 63 62 62 61 61 60 60 59 57 54 51 47 43 40 39 37 35 34 35 36 37 38 39 40 40 40 40 41 42 41 40 39 40 39 38 38
65 66 65 64 63 61 58 57 56 55 56 56 56 56 56 57 57 58 57 56 56 55 54 53 52 51 50 50 51 53 55 57 60 62 63 64 64 63 61 61 62 63 62 62 62 62 62 62 61 61 60 59 58 56 55 54 52 50 46 42 38 35 34 32 32 32 33 34 35 37 38 39 40 41 41 42 42 43 43 42 41 40 39 38 39
64 63 61 59 56 54 53 53 53 54 55 55 56 56 56 56 56 56 55 54 54 53 52 51 49 48 49 50 52 54 56 58 60 62 64 65 65 64 63 63 64 64 63 63 63 63 63 62 60 59 56 54 51 48 46 45 44 41 39 37 34 33 32 32 32 33 34 34 36 37 38 39 40 41 42 42 43 44 44 43 43 42 41 40 40
61 58 56 53 51 51 51 52 53 54 55 55 56 55 55 55 55 55 54 52 52 51 50 49 48 47 48 50 52 55 57 59 61 63 64 65 66 66 66 66 67 67 65 65 65 65 64 62 58 54 50 46 42 40 38 38 38 37 35 35 34 34 34 34 34 34 35 35 36 36 38 39 40 40 41 42 43 43 43 43 44 43 43 42 42
56 54 52 50 50 51 52 53 54 55 56 56 55 54 54 54 54 53 52 51 50 49 48 48 47 48 49 51 53 56 58 61 63 64 66 66 67 67 68 68 69 69 67 67 67 66 63 59 53 47 42 38 35 34 34 35 35 35 35 35 34 34 34 34 34 34 35 35 36 36 38 39 39 40 40 41 41 42 42 42 42 43 42 43 43
52 50 50 50 50 51 53 54 55 55 55 55 54 54 54 53 53 52 51 50 49 48 48 48 48 49 50 52 55 57 60 62 63 65 66 67 68 68 69 69 70 70 69 68 67 65 60 54 46 39 34 32 31 32 33 34 34 33 34 34 34 34 34 33 33 34 34 35 36 37 38 40 40 40 41 41 42 42 43 44 44 45 45 46 46
50 50 50 50 51 52 54 55 55 55 55 55 54 54 53 52 52 52 51 50 49 49 48 49 50 51 52 54 56 58 60 62 64 65 67 68 68 69 69 70 70 70 70 68 65 61 55 46 37 32 30 30 30 31 32 33 33 33 33 33 33 34 34 34 35 36 36 37 38 39 40 41 42 43 44 45 46 47 48 48 49 50 50 51 51
51 51 51 51 52 53 54 54 54 54 55 55 55 54 53 52 52 52 52 52 51 50 50 51 52 53 54 55 57 59 60 62 64 66 67 68 69 69 69 70 70 70 69 65 60 55 48 39 32 29 29 30 30 31 32 34 35 35 35 34 35 35 36 37 37 38 38 38 39 40 42 44 45 47 48 49 50 52 52 52 53 53 54 54 54
51 51 52 52 53 54 54 54 54 54 55 55 55 55 54 53 53 53 53 53 53 52 52 53 54 55 55 56 58 59 60 62 64 65 67 68 68 69 69 70 70 69 65 60 54 48 41 35 31 30 31 32 32 32 34 35 35 35 35 35 36 37 38 38 38 38 39 40 41 43 45 47 48 50 51 51 52 54 54 54 54 54 55 55 54
52 52 53 53 53 54 54 54 54 54 55 56 56 56 55 55 54 54 54 54 54 54 54 55 55 56 57 57 58 58 60 62 64 65 66 67 68 69 69 69 69 66 60 54 47 40 36 33 33 33 33 34 34 35 35 35 35 35 35 36 37 38 38 39 39 40 41 42 44 45 47 48 49 50 50 51 51 52 52 52 52 52 53 53 52
53 54 54 54 54 55 55 55 55 56 56 57 57 57 57 57 57 57 56 56 55 54 55 55 56 57 57 57 57 58 59 61 63 65 66 67 67 68 68 68 67 62 55 48 41 36 34 34 34 34 34 35 35 35 35 34 34 35 36 37 38 38 39 40 40 42 43 44 45 46 46 46 47 47 47 47 48 48 48 48 47 47 48 47 47
54 55 55 55 55 56 56 57 57 58 58 58 59 59 59 60 60 60 59 58 57 55 55 55 56 57 57 57 57 58 59 60 62 64 65 65 66 67 67 67 65 58 49 42 36 34 34 34 34 34 35 35 35 34 34 34 34 36 36 37 38 38 39 40 41 43 44 44 44 44 44 44 44 44 44 43 42 42 41 41 40 40 40 40 40
55 56 56 56 56 57 58 58 58 59 60 60 60 60 61 62 62 62 61 60 58 56 55 55 55 56 56 56 56 57 58 59 60 62 64 64 65 66 66 66 62 54 44 38 35 34 34 34 34 35 35 35 34 33 33 33 35 36 37 37 38 38 39 40 41 42 42 42 42 42 42 42 41 40 39 38 37 36 35 34 34 34 35 36 37
56 56 56 57 57 58 59 59 60 61 61 62 62 63 63 64 64 64 63 61 59 56 55 54 54 55 56 56 55 55 57 58 59 61 63 63 64 64 64 64 60 50 41 37 35 34 35 35 35 35 35 34 33 32 33 34 35 36 37 37 37 38 38 39 40 40 40 40 40 40 40 39 38 36 35 34 33 32 32 32 32 33 35 36 38
56 56 56 57 58 59 60 60 61 62 62 63 63 64 64 64 64 63 62 60 58 55 53 53 53 54 55 55 55 55 56 57 58 60 62 62 63 63 63 63 57 48 40 36 35 35 36 35 35 35 35 34 33 32 33 34 35 36 37 37 37 38 39 39 39 39 39 39 39 39 38 37 35 34 34 33 33 33 33 33 34 35 36 38 39
56 56 57 57 58 59 60 61 62 63 63 63 64 64 64 64 63 61 60 58 56 54 52 52 52 52 53 54 54 55 55 56 57 59 60 61 62 62 62 61 55 46 39 37 36 36 36 36 35 35 34 33 33 33 34 35 35 36 37 37 38 39 39 39 39 38 38 38 38 37 36 36 35 34 33 33 34 34 34 35 35 35 36 37 38
56 57 57 58 59 60 61 61 62 63 63 64 64 64 63 63 61 59 58 58 56 54 52 51 51 51 52 53 54 54 54 55 56 58 59 60 61 61 61 60 53 44 39 38 37 37 37 36 36 35 34 33 33 33 34 35 35 36 36 37 38 39 39 38 38 37 37 37 37 36 35 35 34 34 33 33 33 33 33 33 34 34 35 36 37
57 58 58 59 60 61 62 62 63 63 64 64 64 63 62 61 59 57 57 57 56 53 52 51 50 50 51 52 53 53 54 54 55 57 58 59 59 60 59 58 52 44 40 38 37 37 37 36 36 35 34 33 33 33 34 35 35 36 36 37 37 38 38 37 37 36 36 36 36 36 35 34 34 33 32 32 32 32 32 32 32 32 33 34 35
57 58 59 60 61 62 63 63 63 63 63 63 62 61 59 58 56 55 55 56 55 53 51 51 51 51 51 52 52 52 53 54 55 56 57 58 59 59 58 57 51 44 40 39 38 37 37 36 35 35 34 33 33 33 34 35 35 35 36 37 37 37 37 36 36 35 35 35 35 35 35 34 34 33 32 31 31 31 31 31 31 31 32 33 33
58 59 61 62 63 63 64 64 64 63 63 62 61 59 57 55 55 55 55 56 55 52 51 51 51 51 51 51 52 52 52 53 54 55 56 57 58 58 57 56 51 44 41 39 38 37 37 36 35 35 34 33 33 33 34 35 35 35 35 36 37 37 36 36 36 35 34 34 34 34 34 34 34 34 33 32 31 30 29 29 29 30 30 31 31
60 61 62 63 64 64 64 64 64 63 63 62 59 57 55 55 55 55 56 56 54 52 52 51 52 51 51 51 52 52 52 53 53 54 55 56 57 57 56 54 50 44 41 39 38 38 37 37 35 34 33 32 32 33 34 34 35 35 35 35 36 36 36 36 35 35 34 33 33 33 33 32 32 32 32 32 31 30 29 28 28 28 28 29 30
61 63 63 64 64 64 64 63 63 62 62 61 59 56 55 55 55 56 56 55 54 53 52 52 52 52 51 51 51 51 52 53 53 54 54 55 55 56 55 53 50 44 41 40 39 38 37 37 35 34 33 32 32 33 33 34 34 34 35 35 35 35 35 35 35 34 33 33 33 32 32 31 30 30 30 30 30 30 29 28 28 27 27 27 28
63 63 63 63 63 63 62 62 61 60 60 59 57 55 55 55 56 56 56 55 54 54 53 53 53 52 51 51 51 51 51 52 53 54 54 54 54 54 53 51 49 44 41 40 39 38 38 37 35 33 32 32 32 32 33 33 34 34 34 34 34 34 35 35 35 34 33 32 32 32 32 31 30 29 28 28 28 28 28 28 28 28 27 27 27
63 63 62 62 61 61 60 60 60 59 59 59 56 54 54 55 55 56 55 54 53 53 53 52 53 52 51 51 51 51 51 52 53 53 53 53 53 53 51 50 49 44 41 40 39 38 37 37 35 33 32 31 31 32 33 33 33 33 33 34 34 34 34 34 34 33 33 32 32 32 32 31 30 29 28 27 27 27 27 27 27 27 27 28 28
62 62 62 61 60 60 60 60 60 59 58 57 55 53 54 55 55 55 55 54 53 53 52 52 53 53 52 51 52 51 51 52 53 53 53 52 52 51 49 49 48 44 40 39 39 38 37 37 35 33 32 32 31 32 32 32 32 32 32 33 33 33 33 33 33 33 32 32 31 31 31 31 31 30 29 28 27 27 26 26 26 26 27 27 27
62 62 61 61 60 60 61 61 60 59 57 56 54 54 55 56 55 54 54 53 53 52 53 53 53 53 53 52 52 52 52 52 52 52 52 51 51 49 48 48 48 45 40 39 38 38 37 37 35 33 32 32 32 31 31 31 31 31 32 32 32 32 32 32 32 32 32 31 31 30 30 30 30 30 29 28 28 27 27 26 25 25 25 26 26
62 62 61 61 62 62 63 62 61 59 57 55 54 54 55 55 54 53 53 53 53 53 54 54 55 54 54 54 53 53 52 52 52 51 51 50 49 48 46 47 48 45 41 38 38 37 37 36 35 33 32 31 31 31 31 31 30 31 31 31 31 31 31 31 31 31 31 31 30 30 29 29 29 29 28 28 28 27 27 26 25 25 25 25 25
63 63 63 64 64 65 64 63 61 59 57 55 54 54 54 54 53 52 52 53 54 55 56 57 56 56 55 55 54 53 52 52 51 51 50 49 47 46 45 45 47 45 41 38 37 37 36 35 34 33 32 31 31 31 30 30 30 30 30 31 31 30 30 31 31 31 31 31 30 30 29 28 28 28 28 27 27 27 27 26 26 25 25 24 24
64 64 65 66 66 65 63 60 59 57 55 54 53 52 52 52 51 52 53 54 56 58 59 59 58 57 56 56 55 54 53 53 52 51 49 48 46 45 44 45 45 44 42 39 37 36 36 35 33 32 31 31 31 30 30 30 29 30 30 30 30 30 30 30 30 30 30 30 30 30 29 28 28 27 27 27 26 26 26 26 26 26 25 25 24
65 66 66 65 63 61 58 56 55 53 51 50 50 50 50 51 51 53 54 56 58 59 60 60 59 58 57 56 56 55 54 53 52 51 49 47 45 44 44 44 44 43 41 39 37 36 35 34 33 32 31 31 31 30 29 29 29 29 29 30 30 30 30 30 30 30 30 30 30 31 30 29 28 27 27 27 26 26 25 26 26 26 26 26 25
65 64 62 59 57 55 53 52 52 50 49 49 49 50 51 52 54 55 57 58 59 60 60 60 59 59 58 57 56 56 55 53 52 51 49 47 45 44 43 43 42 42 41 39 38 36 35 34 33 32 31 31 30 30 29 28 28 28 29 29 29 29 29 30 29 29 29 30 30 31 31 30 29 28 28 28 27 26 26 25 26 26 26 26 26
60 57 55 53 51 50 49 50 50 50 50 50 51 52 53 55 56 57 58 59 60 60 60 60 60 59 59 58 57 56 55 54 52 50 48 46 45 44 43 42 42 42 41 40 38 36 35 34 33 32 31 31 30 30 29 28 27 27 28 29 29 29 29 29 29 29 29 29 30 30 31 30 29 28 28 28 28 27 27 26 26 26 26 26 26
54 52 51 50 49 49 48 49 49 50 51 52 53 54 55 56 57 58 59 59 60 60 60 60 60 59 59 58 57 56 55 53 52 50 48 47 45 44 43 42 42 42 41 40 38 36 35 34 33 32 32 31 30 30 29 28 27 27 27 28 28 29 29 29 29 29 29 29 30 30 30 30 30 29 28 28 28 28 28 27 27 26 26 26 25
Wind_Direction
297 296 296 295 295 294 294 293 293 293 292 292 291 291 291 291 290 290 290 290 290 289 289 289 289 289 288 288 288 287 287 287 286 286 286 286 286 286 285 285 285 284 284 284 283 283 283 282 282 282 281 281 281 280 280 280 279 279 279 278 278 278 277 277 276 274 273 273 273 272 271 271 270 270 271 271 270 269 268 266 265 264 263 262 261
295 295 295 295 294 294 294 293 293 292 292 292 291 291 291 290 290 290 290 291 291 291 291 291 291 291 290 290 289 289 288 288 288 287 287 287 287 286 286 286 285 285 284 284 284 283 283 283 282 282 282 281 281 281 280 280 280 279 279 279 279 278 278 278 277 276 274 272 272 272 271 271 270 269 269 269 269 269 269 268 266 265 264 262 261
295 295 295 294 294 294 294 293 292 292 291 291 291 291 291 290 290 291 291 292 292 292 293 293 292 292 291 291 290 290 289 289 289 288 288 288 287 287 287 286 286 286 285 285 285 284 284 284 284 283 283 283 282 282 282 281 281 281 280 280 280 280 279 279 279 278 277 274 273 272 272 271 270 269 268 267 266 266 268 268 267 266 264 263 262
296 296 295 295 295 294 294 293 292 292 292 292 292 291 291 291 291 292 292 292 293 293 292 292 291 291 291 290 290 289 289 289 289 289 288 288 288 288 287 287 287 287 286 286 286 286 286 285 285 285 284 284 284 284 283 283 282 282 282 281 281 281 280 280 280 280 279 277 275 274 273 272 272 271 269 268 266 265 264 265 266 266 266 264 262
296 296 296 295 295 294 293 293 292 292 293 293 293 292 292 292 292 292 292 292 292 292 291 291 291 290 290 290 289 289 289 289 289 289 288 288 288 288 288 288 288 287 287 287 287 287 286 286 286 286 285 285 285 284 284 284 283 283 282 282 282 281 281 281 281 280 280 279 277 276 275 274 273 272 271 270 269 266 265 264 263 264 265 265 264
296 296 295 295 294 293 292 292 292 293 293 293 292 292 292 292 292 292 292 292 292 291 291 291 291 290 290 290 290 290 290 289 289 289 289 289 289 288 288 288 288 288 288 288 288 287 287 287 287 287 286 286 285 285 284 284 283 283 282 282 282 281 281 280 280 280 280 279 278 277 276 275 274 274 273 271 270 269 267 265 264 263 263 263 264
295 294 294 293 293 292 292 292 292 292 292 292 292 292 292 292 292 292 292 292 292 292 291 291 291 291 291 291 291 290 290 290 290 290 290 289 289 289 289 289 289 289 289 289 289 288 288 288 288 287 287 287 286 285 285 284 283 283 282 282 281 281 281 280 280 280 279 279 278 277 276 275 274 274 273 272 271 270 268 267 265 264 262 262 262
294 293 293 292 292 292 291 291 292 292 292 292 292 292 292 292 292 292 292 292 292 292 292 292 291 291 291 291 291 291 291 291 291 291 290 290 290 290 290 290 290 290 290 290 290 290 289 289 288 288 287 287 286 286 285 284 283 283 283 282 282 281 281 281 280 280 280 279 279 278 277 276 275 275 274 273 272 271 270 269 267 266 264 262 261
293 292 292 291 291 291 291 291 291 291 291 291 291 291 291 292 292 292 292 293 293 292 292 292 292 292 292 292 292 292 292 292 292 292 292 292 292 292 292 292 292 292 292 291 291 290 290 289 289 288 287 287 287 286 286 285 284 284 283 283 283 282 282 282 282 281 281 280 280 279 278 277 276 275 275 274 273 272 271 270 269 268 266 264 262
291 291 291 290 290 290 290 290 290 290 290 290 291 291 292 292 293 293 293 293 293 293 292 292 292 292 292 292 292 292 292 293 293 293 293 293 293 293 294 294 293 293 292 292 291 290 290 290 289 289 288 288 287 286 286 285 285 285 284 284 284 284 283 283 282 282 281 281 280 280 279 278 277 276 275 275 274 273 272 272 270 269 268 266 265
290 290 289 289 289 289 289 289 289 290 290 290 291 291 292 293 293 293 293 293 293 293 292 292 292 293 293 293 293 293 294 294 294 295 295 295 295 295 295 294 294 293 293 292 292 291 291 291 290 290 289 288 288 287 287 286 286 286 286 286 286 285 285 284 283 283 282 282 281 280 279 278 277 276 276 275 275 274 273 272 271 270 269 268 266
288 288 288 288 288 288 288 288 289 289 289 290 291 292 293 293 293 293 293 293 293 293 293 293 293 294 294 294 294 295 295 295 296 296 296 296 295 295 295 295 294 294 294 294 294 293 293 292 292 291 290 289 289 288 288 287 287 288 288 287 287 287 286 286 285 284 284 283 282 281 281 279 278 277 277 276 275 274 273 272 271 270 270 269 268
286 286 286 287 287 287 287 288 288 289 289 290 292 292 293 293 293 293 293 293 293 293 294 294 295 295 295 295 295 296 296 296 296 296 296 296 296 296 297 297 297 297 297 297 296 296 295 294 293 292 291 290 290 289 289 289 289 289 289 289 289 288 288 288 288 287 286 285 284 283 282 281 280 279 278 277 276 275 273 272 271 271 270 270 269
285 285 285 286 287 287 287 288 289 289 290 291 292 292 292 293 293 293 293 293 294 295 296 296 296 296 295 296 296 296 296 296 296 296 297 297 298 299 299 300 300 300 300 299 298 298 296 295 294 293 293 292 291 291 291 291 291 290 290 290 290 289 289 289 289 288 287 286 285 284 283 283 282 281 279 278 277 276 274 273 272 272 271 271 270
285 285 285 286 287 287 288 288 289 290 290 291 291 292 292 293 293 293 294 295 296 297 297 296 296 296 296 296 296 296 296 296 297 298 299 300 300 301 302 302 302 302 302 301 300 299 298 297 296 295 294 294 293 293 293 292 292 292 291 291 290 290 290 289 289 288 287 287 286 286 285 284 283 281 280 279 278 277 276 276 275 274 273 272 271
285 286 287 287 288 287 288 288 289 289 290 290 291 291 292 292 293 295 296 297 297 297 297 296 296 296 296 296 296 296 297 298 299 300 301 302 302 303 304 304 304 304 303 303 302 301 300 299 298 297 296 296 295 295 294 294 293 293 292 292 291 291 290 289 288 287 287 287 287 286 285 284 283 282 282 281 280 280 279 279 279 277 275 274 273
286 287 287 287 287 287 288 288 288 289 289 290 290 291 292 294 295 297 297 298 298 298 297 297 297 296 296 296 296 297 298 300 301 302 303 304 304 305 305 305 305 305 305 304 303 302 301 300 299 299 298 297 296 296 295 294 294 293 293 292 292 291 290 288 287 287 287 287 286 285 284 284 284 283 283 283 283 282 282 282 281 279 278 276 274
287 288 287 287 287 287 288 288 288 288 288 289 290 292 294 296 297 298 299 299 299 298 298 297 297 296 296 296 297 298 300 301 303 304 305 306 307 307 307 307 307 307 306 306 304 303 302 301 300 299 299 298 297 296 295 294 294 293 293 293 292 291 290 288 287 287 287 286 286 286 287 287 286 285 284 284 284 283 282 282 281 280 279 278 276
287 287 287 287 287 287 286 286 286 286 287 289 291 294 296 297 298 299 300 301 300 299 298 297 296 296 297 297 299 300 302 303 304 305 307 308 309 309 309 310 310 309 308 307 305 304 303 302 301 301 300 299 298 297 296 295 294 294 294 293 293 291 289 288 288 287 286 286 286 287 288 288 288 288 287 287 287 286 285 283 281 280 279 278 276
287 286 286 286 285 284 284 284 285 287 289 291 293 295 297 298 299 301 302 301 300 298 297 296 296 297 297 299 300 302 304 305 306 307 308 310 311 312 312 313 312 312 311 309 307 306 304 303 303 302 301 300 299 298 297 296 295 295 295 295 294 293 291 290 290 289 288 287 287 287 288 288 288 289 289 289 289 289 289 288 286 284 282 280 278
287 286 285 284 283 282 283 284 286 288 290 292 294 296 298 300 301 302 302 301 299 298 297 296 296 297 298 300 302 304 305 307 308 309 310 311 313 314 315 315 315 314 313 312 310 308 306 305 305 304 302 301 299 298 296 295 295 296 297 298 298 297 295 294 293 291 290 289 288 288 287 287 287 287 287 287 288 288 289 289 288 288 286 284 282
286 284 283 282 282 282 283 285 287 289 291 293 296 298 299 300 301 302 301 300 299 297 296 296 297 298 299 301 303 305 307 308 309 310 311 312 314 316 317 317 317 316 315 313 311 310 308 307 306 305 302 299 297 295 294 294 295 296 297 298 298 297 296 295 294 292 291 289 288 287 286 285 285 285 284 284 284 285 285 285 286 286 286 286 285
283 282 281 281 282 283 285 286 288 290 293 295 297 299 300 300 300 300 299 298 297 296 296 296 297 298 300 302 304 306 308 309 310 311 312 313 315 317 318 318 318 317 316 314 313 311 310 308 307 304 300 296 294 293 293 293 294 296 297 297 297 297 296 294 293 291 290 289 288 287 287 286 285 284 284 283 283 283 283 283 284 284 285 285 285
281 280 281 281 283 284 286 287 289 292 294 296 297 298 298 299 299 298 297 297 296 295 295 296 297 298 300 302 304 305 307 309 310 311 312 313 315 317 318 319 319 318 317 315 314 312 310 309 307 301 296 293 292 292 292 292 293 294 296 297 297 296 296 295 293 293 292 291 291 290 290 289 288 288 287 287 287 287 287 286 287 287 286 286 285
280 280 281 283 284 285 287 289 291 293 295 296 296 297 297 296 296 296 295 294 294 294 294 295 296 297 299 301 303 304 305 307 309 311 312 313 315 317 319 319 319 318 317 316 314 312 311 309 304 297 293 292 293 293 293 294 296 297 298 299 299 299 299 299 298 297 296 295 294 293 293 292 292 291 291 291 290 289 288 288 288 287 286 285 285
280 281 282 284 285 286 288 290 291 293 294 294 294 294 294 294 294 294 293 292 292 292 293 294 295 296 298 300 301 303 304 306 309 310 311 313 315 318 319 320 320 319 318 316 314 312 311 308 302 297 296 296 296 297 299 301 302 302 302 303 303 302 301 300 299 298 297 296 296 294 294 293 293 292 292 291 290 289 288 287 287 286 285 284 283
281 282 284 285 286 287 289 290 291 291 292 292 292 292 293 293 293 292 291 291 291 291 291 292 293 295 297 298 300 301 303 306 308 309 311 313 316 318 320 320 320 320 318 316 314 311 309 306 302 300 300 300 300 302 303 303 302 303 303 304 303 302 302 301 300 300 300 299 298 297 295 294 294 293 292 291 290 289 288 287 286 285 284 283 283
282 283 284 285 286 287 288 289 289 290 290 290 290 291 292 292 293 292 291 290 290 290 291 292 293 294 296 297 299 301 303 305 307 309 311 313 316 318 320 321 321 321 318 315 312 309 306 303 302 302 301 302 303 303 302 301 301 302 303 304 304 303 303 303 304 303 303 302 300 299 298 297 296 295 294 292 291 290 288 287 286 285 284 283 282
283 284 285 286 287 287 288 288 289 289 289 289 290 291 291 292 293 293 292 290 290 290 292 293 293 295 296 297 299 300 302 305 307 309 311 313 316 319 320 322 322 321 317 313 309 305 302 301 301 301 301 302 302 301 301 301 303 303 304 305 305 305 305 305 306 306 305 304 303 301 300 299 298 297 296 295 293 292 290 289 287 286 285 284 284
282 284 285 286 286 287 287 288 288 289 289 289 289 290 290 291 292 292 292 291 290 290 292 293 294 295 296 297 298 300 302 305 306 308 310 313 316 319 321 323 323 320 314 310 306 302 300 301 300 301 301 301 300 300 301 302 304 305 305 306 306 306 307 308 309 308 307 306 305 304 303 302 301 300 298 298 297 296 294 292 290 288 287 287 287
282 283 284 285 285 286 286 287 288 288 289 289 289 289 289 289 290 291 292 292 290 290 291 293 294 295 295 296 297 300 302 304 306 307 309 313 316 319 321 323 322 318 311 307 304 301 300 301 301 301 301 300 299 300 302 304 305 305 306 306 307 308 310 311 310 310 309 309 308 308 307 306 305 303 302 301 301 300 298 296 294 293 293 293 293
282 283 283 284 285 286 286 287 287 288 289 289 289 288 288 289 289 290 291 291 290 290 291 292 293 294 294 295 297 299 301 303 305 307 309 312 316 319 321 323 321 315 307 304 303 301 301 301 301 302 301 300 300 301 303 305 306 306 306 307 309 311 312 312 311 310 309 310 310 310 311 310 308 306 304 304 303 302 300 298 297 297 296 296 296
283 283 284 285 285 286 287 287 288 288 289 289 289 289 289 289 289 290 290 290 289 290 290 291 292 294 294 295 296 299 301 303 304 306 309 312 315 318 321 323 320 312 304 303 302 301 301 301 301 301 300 299 301 303 305 305 306 306 308 309 311 312 313 312 311 310 310 311 312 313 314 315 313 309 305 304 304 303 301 299 298 298 297 297 297
284 284 284 285 285 286 286 287 288 288 289 289 289 289 289 289 289 290 289 288 288 289 290 290 292 293 293 294 296 298 300 302 303 305 308 311 315 317 320 322 319 309 301 301 302 301 301 301 300 300 299 299 301 303 304 305 306 307 309 311 312 313 313 313 312 311 312 314 315 314 315 317 317 315 310 305 304 303 301 300 299 298 298 298 298
283 283 284 284 285 285 286 286 287 288 288 289 289 289 290 290 290 289 287 286 287 288 289 289 290 291 292 293 295 297 299 301 302 305 307 310 314 316 319 321 317 307 299 299 301 300 300 300 300 299 299 299 301 303 304 305 307 309 311 312 313 313 313 313 312 312 313 315 315 314 314 316 318 318 315 311 308 305 303 302 301 300 300 300 301
282 282 283 284 284 284 285 286 286 287 288 289 290 290 290 290 288 287 285 285 286 287 288 288 289 290 291 292 294 296 298 300 302 304 307 309 313 315 318 320 316 305 297 298 299 299 299 299 299 299 299 299 301 303 304 306 308 309 311 312 313 313 313 312 311 312 313 315 315 314 314 315 316 318 319 317 314 311 308 306 305 304 304 304 305
282 282 283 284 285 285 286 286 287 288 289 289 290 290 289 288 286 285 284 285 286 286 287 287 288 289 290 292 293 295 297 299 301 303 306 308 311 314 317 319 315 304 295 296 298 297 298 298 297 298 298 299 301 303 304 306 308 310 311 312 312 313 313 311 310 311 312 313 315 315 314 314 315 316 317 317 316 314 312 309 308 308 309 309 310
282 283 284 285 285 286 286 287 288 288 289 289 289 289 287 285 283 282 283 284 284 285 286 287 288 289 289 291 293 294 296 298 300 302 304 307 310 313 316 318 315 303 294 294 297 296 296 297 296 296 297 298 300 303 304 306 308 310 311 312 312 313 312 311 310 310 311 313 314 315 315 314 314 314 315 315 316 315 315 313 312 312 313 314 314
283 283 284 285 285 285 286 287 287 288 288 289 289 287 285 281 279 279 281 282 283 285 286 288 288 288 289 290 292 294 296 297 299 301 303 306 309 312 315 317 314 303 293 293 296 296 296 295 294 294 295 296 299 302 304 306 308 309 310 312 312 312 312 311 310 309 310 312 313 315 315 315 314 313 313 314 315 317 318 317 316 316 316 317 317
282 283 284 284 285 285 286 286 287 288 288 288 288 286 282 279 277 277 278 281 283 284 286 287 287 287 288 290 291 293 295 296 297 300 302 304 307 310 313 316 313 303 292 292 295 295 294 294 293 293 294 296 299 302 304 305 307 309 310 311 312 312 312 311 309 309 309 311 312 313 315 315 315 314 313 313 315 316 318 320 321 321 320 320 319
283 284 284 285 285 285 286 286 287 288 288 287 286 284 281 278 275 275 276 279 281 282 284 286 286 286 288 289 290 292 293 294 296 299 301 302 306 308 310 313 313 303 291 290 293 293 292 293 292 291 293 296 298 301 303 304 306 308 309 310 311 312 312 312 310 309 308 309 310 312 313 315 316 316 315 315 314 315 317 319 321 323 324 324 323
284 285 286 286 286 286 286 286 287 287 287 286 283 281 279 277 275 274 275 277 278 280 282 284 285 286 287 289 289 291 292 293 295 297 299 300 304 306 308 311 312 304 291 288 292 293 292 292 291 290 292 294 297 300 302 303 305 307 308 309 311 312 312 313 312 310 308 307 308 310 311 312 314 316 317 317 317 316 316 318 320 322 325 327 327
286 286 287 287 286 286 286 286 286 287 287 285 282 279 278 276 274 274 275 275 277 279 282 283 285 286 287 288 288 290 291 292 294 296 297 299 301 304 305 309 312 305 291 286 290 292 291 291 291 290 291 293 295 298 300 302 304 306 307 308 310 311 312 313 313 311 308 305 305 307 309 310 312 314 316 317 317 317 317 318 319 321 323 325 327
287 287 288 287 287 287 287 287 287 287 286 284 281 278 277 275 273 272 273 274 276 279 281 283 284 285 286 287 288 289 290 291 291 293 295 297 299 301 303 307 310 304 291 285 288 290 289 290 290 289 290 292 294 296 299 301 303 306 307 308 309 310 312 313 313 312 310 305 302 303 305 306 308 310 313 314 315 316 317 318 320 320 322 324 326
288 288 288 288 288 288 287 286 286 285 284 282 279 278 276 274 272 271 272 274 276 279 281 283 284 285 285 286 287 288 288 288 289 291 293 295 296 298 301 305 308 303 291 283 285 287 287 287 288 288 288 290 292 295 297 300 302 304 306 307 308 310 311 311 312 313 311 308 303 300 300 302 303 305 307 310 312 314 315 317 319 320 322 323 324
288 289 289 289 289 288 287 286 284 283 281 279 277 276 275 273 271 271 273 275 276 278 280 282 283 283 284 285 286 286 286 286 287 289 291 292 293 295 298 302 304 300 290 282 282 284 284 284 285 285 286 288 291 293 296 299 301 304 305 307 308 309 310 311 311 312 312 311 307 302 299 298 299 301 303 305 308 311 313 315 317 319 321 322 324
289 289 289 289 288 287 286 284 282 280 279 277 276 275 274 273 272 272 273 274 274 276 278 280 281 282 283 284 284 284 284 284 285 287 289 289 290 292 295 299 300 297 289 280 279 282 282 281 282 283 284 286 289 291 294 297 300 303 305 306 308 309 310 310 311 312 312 312 311 307 302 298 297 297 299 301 303 306 309 312 315 317 319 321 323
289 289 289 288 287 286 284 282 280 278 276 274 273 272 272 272 272 272 272 272 273 275 277 278 280 281 282 282 283 283 283 283 284 285 287 287 287 289 293 296 297 294 287 279 277 279 280 279 279 280 282 284 287 289 293 296 299 302 304 306 308 309 309 310 311 312 312 312 312 311 308 303 299 296 296 297 299 301 304 307 310 313 316 318 320
289 289 288 287 286 284 282 280 279 276 274 272 271 270 270 270 271 271 272 273 274 276 277 278 279 280 281 281 282 281 281 282 283 284 285 284 285 287 291 293 294 293 287 278 274 276 277 277 277 278 279 281 284 287 290 294 298 301 303 305 307 309 309 309 310 311 312 312 312 312 311 309 305 299 295 295 296 297 299 301 304 307 310 313 316
288 288 287 286 285 284 282 280 279 277 275 273 272 271 271 271 271 272 273 274 274 276 276 277 278 279 279 280 280 279 279 280 281 282 282 282 283 286 289 290 291 291 287 278 273 273 275 274 275 276 277 279 282 285 288 292 296 299 302 305 307 308 309 309 309 310 310 311 311 312 312 312 310 306 300 296 294 295 296 298 300 302 305 308 311
287 287 286 286 285 284 283 282 281 280 279 277 276 274 274 273 273 273 273 274 274 275 275 276 277 277 277 277 278 278 278 279 279 280 280 280 281 284 286 287 288 289 285 277 272 271 272 272 272 274 275 277 280 282 286 290 294 297 300 303 306 308 309 309 309 309 309 309 310 311 312 313 313 311 306 301 296 294 294 295 297 298 300 303 306
Height
5692 5690 5688 5685 5683 5681 5678 5676 5673 5670 5667 5665 5662 5660 5657 5655 5652 5649 5646 5644 5641 5639 5636 5634 5632 5629 5627 5625 5622 5620 5618 5615 5613 5611 5608 5606 5604 5602 5599 5597 5595 5592 5590 5587 5585 5583 5581 5578 5576 5574 5571 5570 5568 5565 5563 5561 5558 5557 5555 5552 5552 5549 5546 5544 5542 5549 5559 5559 5557 5557 5551 5548 5554 5553 5548 5551 5555 5554 5556 5559 5560 5561 5563 5565 5567
5684 5682 5679 5677 5674 5672 5669 5666 5664 5661 5658 5656 5653 5651 5648 5646 5643 5640 5637 5634 5632 5629 5626 5624 5621 5619 5617 5614 5612 5610 5608 5606 5603 5601 5599 5597 5595 5592 5590 5587 5585 5582 5579 5577 5574 5572 5569 5567 5564 5562 5560 5557 5555 5553 5551 5549 5546 5544 5542 5539 5538 5536 5532 5530 5528 5529 5539 5546 5545 5543 5538 5533 5537 5540 5535 5535 5541 5540 5537 5541 5544 5545 5548 5550 5552
5675 5673 5670 5668 5665 5662 5660 5657 5654 5652 5649 5647 5644 5642 5639 5637 5634 5631 5628 5625 5622 5619 5617 5614 5612 5610 5607 5605 5602 5600 5598 5596 5594 5592 5589 5587 5584 5582 5579 5577 5574 5571 5568 5565 5563 5560 5558 5556 5553 5550 5547 5545 5543 5540 5537 5535 5532 5530 5529 5526 5523 5523 5519 5515 5514 5513 5518 5528 5532 5529 5525 5519 5519 5524 5521 5519 5526 5529 5524 5523 5526 5528 5532 5534 5536
5666 5664 5661 5658 5655 5653 5650 5647 5645 5642 5640 5637 5635 5633 5630 5627 5624 5622 5619 5616 5613 5610 5608 5606 5603 5601 5598 5595 5593 5591 5589 5587 5584 5582 5579 5577 5574 5571 5569 5566 5563 5560 5557 5554 5551 5548 5546 5543 5540 5537 5534 5532 5529 5527 5523 5520 5518 5515 5514 5512 5509 5508 5506 5502 5499 5498 5499 5507 5515 5514 5511 5506 5503 5506 5506 5503 5507 5514 5513 5510 5511 5511 5513 5516 5519
5657 5654 5651 5649 5646 5643 5640 5637 5634 5632 5630 5627 5625 5623 5620 5618 5615 5612 5610 5607 5605 5603 5600 5597 5594 5591 5589 5586 5583 5581 5579 5577 5575 5572 5569 5566 5563 5561 5558 5555 5552 5548 5545 5542 5539 5536 5533 5530 5527 5524 5521 5518 5515 5512 5509 5506 5504 5501 5499 5498 5495 5493 5492 5489 5486 5484 5483 5487 5495 5497 5495 5491 5487 5489 5490 5487 5488 5494 5496 5496 5498 5499 5498 5499 5502
5647 5645 5642 5639 5636 5633 5630 5627 5624 5622 5620 5618 5616 5613 5611 5608 5606 5604 5602 5599 5597 5594 5591 5588 5585 5582 5579 5576 5574 5571 5569 5567 5564 5561 5558 5555 5552 5549 5546 5543 5540 5536 5533 5530 5526 5523 5520 5517 5514 5510 5507 5504 5501 5497 5495 5491 5489 5487 5484 5482 5480 5478 5476 5475 5472 5470 5470 5470 5474 5478 5479 5476 5471 5471 5472 5470 5471 5474 5476 5477 5481 5485 5486 5486 5487
5638 5635 5633 5630 5627 5623 5620 5618 5616 5613 5611 5609 5606 5604 5602 5600 5598 5596 5593 5591 5588 5586 5582 5579 5576 5573 5569 5567 5564 5561 5558 5556 5553 5550 5547 5544 5540 5537 5534 5531 5527 5524 5520 5517 5514 5511 5508 5504 5501 5498 5493 5490 5487 5483 5479 5477 5474 5472 5470 5468 5466 5464 5462 5461 5459 5456 5456 5456 5457 5459 5460 5460 5456 5454 5454 5454 5455 5456 5456 5456 5461 5467 5469 5470 5473
5629 5626 5623 5621 5618 5615 5612 5609 5607 5605 5602 5600 5597 5595 5593 5592 5590 5588 5585 5583 5580 5577 5574 5570 5567 5563 5560 5557 5553 5550 5547 5544 5541 5538 5535 5531 5528 5525 5522 5519 5515 5512 5509 5505 5502 5498 5495 5492 5488 5485 5481 5477 5473 5469 5466 5463 5461 5459 5458 5455 5453 5451 5449 5447 5446 5444 5442 5443 5444 5443 5444 5445 5443 5439 5438 5438 5439 5440 5438 5438 5442 5445 5447 5452 5458
5620 5617 5614 5612 5609 5606 5603 5600 5598 5596 5593 5591 5589 5587 5586 5584 5582 5579 5577 5574 5571 5568 5564 5561 5557 5553 5550 5547 5543 5539 5536 5533 5529 5526 5523 5520 5517 5513 5510 5507 5504 5501 5497 5494 5490 5487 5483 5480 5477 5473 5470 5466 5462 5458 5454 5450 5448 5447 5446 5443 5441 5439 5437 5435 5434 5432 5431 5430 5431 5430 5430 5431 5430 5426 5424 5423 5425 5426 5424 5422 5425 5426 5426 5432 5440
5611 5608 5605 5603 5601 5598 5595 5592 5590 5587 5585 5583 5581 5579 5578 5575 5573 5571 5568 5565 5562 5558 5554 5551 5547 5543 5540 5536 5533 5529 5525 5522 5518 5515 5511 5508 5506 5503 5500 5497 5493 5490 5487 5483 5480 5477 5473 5470 5467 5463 5459 5456 5451 5448 5444 5440 5437 5436 5434 5432 5430 5428 5426 5424 5422 5420 5419 5419 5419 5418 5417 5419 5417 5413 5412 5411 5411 5413 5412 5410 5411 5411 5409 5414 5421
5602 5600 5597 5595 5592 5589 5587 5584 5581 5579 5577 5575 5573 5571 5570 5567 5564 5562 5559 5555 5552 5548 5544 5541 5537 5533 5530 5526 5523 5518 5514 5511 5508 5504 5500 5497 5495 5493 5490 5487 5484 5481 5477 5474 5471 5467 5464 5460 5457 5453 5449 5445 5441 5437 5433 5430 5427 5426 5424 5421 5419 5416 5413 5412 5411 5409 5407 5407 5407 5405 5404 5406 5405 5401 5400 5400 5399 5400 5400 5398 5397 5397 5396 5399 5405
5594 5592 5589 5587 5584 5581 5579 5576 5574 5572 5570 5567 5565 5563 5561 5558 5555 5552 5549 5545 5542 5538 5534 5531 5527 5524 5520 5517 5513 5509 5505 5502 5498 5494 5491 5488 5485 5483 5481 5478 5475 5472 5468 5465 5461 5458 5454 5451 5447 5443 5439 5434 5430 5426 5422 5420 5418 5416 5414 5411 5408 5405 5401 5399 5398 5397 5396 5395 5396 5394 5392 5392 5393 5391 5388 5387 5387 5387 5387 5386 5385 5384 5385 5387 5391
5587 5585 5582 5579 5576 5574 5571 5569 5566 5564 5562 5559 5557 5554 5552 5549 5545 5542 5539 5535 5532 5528 5525 5522 5518 5515 5511 5507 5504 5500 5496 5493 5490 5486 5483 5480 5477 5475 5473 5470 5467 5464 5460 5456 5452 5448 5444 5440 5437 5433 5428 5424 5419 5415 5412 5410 5408 5406 5404 5402 5399 5395 5392 5389 5387 5385 5384 5384 5385 5384 5382 5381 5381 5380 5377 5375 5376 5375 5374 5374 5373 5373 5375 5376 5379
5579 5578 5575 5572 5569 5566 5563 5561 5558 5556 5553 5550 5548 5545 5542 5539 5536 5533 5530 5526 5523 5520 5516 5513 5510 5506 5502 5499 5496 5492 5488 5485 5482 5479 5476 5473 5470 5467 5465 5462 5459 5455 5451 5447 5442 5438 5434 5430 5426 5422 5418 5413 5409 5405 5402 5400 5398 5397 5394 5392 5389 5386 5384 5381 5378 5375 5374 5373 5374 5375 5373 5371 5371 5371 5368 5365 5365 5364 5363 5364 5364 5364 5365 5366 5368
5571 5570 5567 5564 5561 5558 5555 5553 5550 5547 5544 5542 5539 5536 5533 5530 5527 5524 5521 5518 5515 5511 5508 5505 5501 5497 5494 5491 5488 5485 5481 5478 5475 5472 5469 5466 5463 5460 5457 5454 5451 5447 5442 5438 5433 5429 5424 5419 5415 5412 5408 5404 5399 5395 5392 5390 5388 5387 5385 5382 5380 5378 5375 5372 5369 5367 5365 5364 5364 5365 5364 5362 5361 5361 5359 5356 5355 5355 5354 5355 5355 5355 5356 5357 5358
5563 5561 5559 5556 5553 5550 5547 5545 5541 5538 5536 5533 5530 5527 5524 5522 5519 5516 5513 5510 5507 5503 5500 5497 5493 5490 5487 5484 5482 5478 5475 5471 5468 5465 5462 5458 5456 5453 5450 5446 5443 5438 5434 5429 5425 5420 5415 5410 5406 5402 5398 5394 5390 5386 5382 5380 5378 5377 5375 5373 5371 5369 5367 5364 5361 5358 5357 5356 5356 5355 5355 5354 5353 5352 5351 5348 5348 5347 5346 5347 5348 5347 5347 5349 5350
5555 5553 5551 5548 5544 5541 5538 5536 5533 5530 5527 5525 5522 5519 5517 5514 5511 5508 5505 5502 5499 5496 5492 5489 5486 5483 5480 5477 5475 5472 5469 5465 5461 5458 5455 5451 5448 5445 5442 5439 5435 5430 5426 5421 5417 5412 5407 5401 5397 5393 5389 5385 5381 5377 5373 5370 5369 5367 5366 5364 5363 5361 5358 5356 5353 5352 5351 5349 5348 5347 5347 5346 5346 5345 5344 5342 5341 5340 5340 5341 5341 5339 5340 5342 5343
5547 5545 5542 5538 5535 5532 5530 5527 5525 5522 5519 5517 5514 5512 5509 5506 5504 5501 5497 5495 5491 5488 5485 5482 5479 5476 5474 5471 5468 5466 5463 5459 5455 5451 5447 5444 5440 5438 5435 5431 5427 5422 5418 5414 5409 5403 5398 5393 5388 5384 5381 5377 5373 5369 5365 5361 5359 5358 5357 5355 5354 5353 5350 5348 5347 5347 5345 5344 5342 5341 5340 5340 5339 5339 5337 5336 5335 5333 5333 5335 5334 5333 5334 5335 5336
5538 5535 5532 5529 5526 5524 5521 5519 5516 5514 5512 5509 5507 5504 5502 5499 5496 5493 5490 5487 5484 5480 5478 5475 5473 5470 5467 5464 5462 5459 5456 5453 5448 5444 5440 5436 5433 5430 5427 5423 5419 5414 5410 5405 5401 5396 5390 5386 5381 5376 5372 5368 5364 5361 5357 5353 5351 5350 5349 5348 5347 5345 5343 5342 5342 5341 5340 5339 5338 5337 5336 5335 5333 5332 5331 5330 5328 5327 5327 5328 5328 5328 5328 5329 5329
5528 5525 5523 5521 5518 5516 5514 5511 5509 5507 5504 5502 5499 5497 5494 5491 5488 5485 5482 5479 5476 5474 5471 5469 5466 5464 5461 5458 5455 5452 5450 5446 5442 5438 5433 5429 5425 5422 5418 5415 5410 5406 5402 5397 5392 5387 5382 5378 5373 5368 5364 5359 5355 5352 5349 5345 5343 5342 5341 5341 5340 5339 5338 5337 5337 5336 5335 5335 5334 5332 5331 5330 5328 5327 5326 5324 5323 5321 5320 5321 5321 5321 5322 5323 5322
5518 5516 5514 5512 5510 5508 5506 5503 5501 5499 5497 5494 5492 5489 5486 5483 5480 5477 5475 5472 5469 5467 5464 5462 5460 5458 5455 5452 5449 5446 5443 5439 5435 5431 5427 5423 5418 5414 5410 5406 5402 5397 5393 5388 5383 5378 5374 5369 5366 5361 5356 5352 5348 5345 5343 5340 5337 5337 5336 5335 5335 5334 5333 5333 5332 5331 5331 5330 5329 5327 5326 5324 5323 5322 5321 5319 5318 5317 5316 5315 5314 5314 5314 5315 5315
5509 5507 5505 5504 5502 5500 5498 5496 5494 5492 5490 5487 5484 5481 5478 5475 5473 5470 5467 5465 5463 5460 5458 5456 5454 5452 5449 5446 5443 5439 5436 5432 5429 5424 5420 5416 5412 5407 5403 5398 5393 5388 5384 5380 5374 5369 5365 5361 5357 5353 5349 5346 5343 5340 5338 5336 5334 5333 5332 5331 5331 5330 5329 5329 5328 5327 5326 5325 5324 5322 5321 5319 5318 5317 5315 5314 5313 5312 5311 5310 5309 5309 5308 5308 5308
5501 5499 5498 5496 5495 5493 5491 5489 5487 5484 5482 5479 5476 5473 5471 5467 5465 5463 5460 5458 5456 5454 5451 5449 5447 5445 5443 5440 5437 5433 5429 5426 5422 5418 5413 5409 5405 5401 5395 5390 5385 5380 5375 5371 5366 5361 5356 5353 5350 5346 5343 5340 5338 5336 5334 5332 5331 5330 5329 5328 5327 5326 5325 5324 5323 5322 5321 5319 5318 5317 5315 5314 5313 5312 5310 5309 5308 5307 5306 5305 5304 5303 5303 5302 5301
5493 5492 5491 5489 5487 5486 5483 5481 5479 5477 5474 5471 5468 5466 5463 5460 5458 5456 5453 5451 5449 5447 5445 5443 5441 5439 5437 5434 5431 5427 5423 5419 5415 5411 5407 5403 5399 5394 5389 5383 5378 5372 5367 5362 5357 5352 5349 5346 5343 5340 5338 5336 5334 5333 5331 5329 5328 5327 5325 5324 5323 5321 5320 5319 5318 5317 5316 5314 5313 5311 5310 5308 5307 5306 5304 5303 5302 5301 5299 5299 5298 5297 5296 5296 5295
5486 5484 5483 5482 5480 5478 5476 5473 5471 5469 5466 5464 5461 5459 5456 5454 5451 5449 5447 5445 5443 5441 5439 5437 5435 5432 5430 5428 5425 5421 5416 5413 5409 5405 5401 5396 5392 5388 5383 5377 5371 5365 5359 5354 5349 5344 5342 5340 5337 5335 5333 5332 5330 5329 5327 5325 5323 5322 5321 5320 5318 5317 5316 5314 5313 5312 5310 5309 5307 5306 5304 5302 5301 5299 5298 5297 5295 5293 5292 5292 5292 5290 5289 5288 5288
5478 5477 5476 5474 5472 5470 5468 5466 5464 5462 5459 5457 5454 5452 5450 5447 5445 5443 5440 5438 5436 5434 5432 5431 5428 5426 5424 5421 5418 5414 5410 5406 5403 5398 5394 5390 5386 5381 5376 5370 5364 5358 5352 5346 5342 5338 5336 5334 5333 5331 5329 5328 5326 5325 5323 5321 5319 5318 5317 5316 5314 5313 5311 5310 5308 5307 5305 5304 5302 5300 5298 5296 5294 5292 5291 5290 5288 5286 5285 5285 5284 5282 5280 5280 5281
5471 5469 5468 5466 5464 5462 5460 5458 5456 5454 5452 5449 5447 5445 5443 5441 5438 5436 5434 5431 5429 5428 5426 5424 5421 5419 5417 5415 5412 5408 5404 5400 5396 5392 5388 5384 5380 5375 5370 5364 5358 5352 5345 5340 5336 5333 5331 5330 5329 5327 5325 5324 5322 5321 5319 5317 5316 5314 5313 5311 5310 5308 5307 5305 5304 5302 5300 5299 5297 5295 5293 5290 5288 5286 5284 5282 5280 5278 5277 5276 5276 5274 5272 5271 5272
5463 5461 5460 5458 5456 5454 5452 5450 5449 5447 5444 5442 5440 5438 5436 5434 5431 5429 5427 5425 5423 5421 5419 5417 5414 5412 5410 5408 5405 5401 5398 5393 5390 5386 5382 5377 5373 5369 5364 5358 5352 5346 5340 5335 5332 5330 5328 5326 5325 5324 5322 5320 5319 5317 5316 5314 5312 5311 5309 5307 5306 5304 5302 5300 5298 5297 5295 5293 5291 5289 5286 5284 5281 5279 5276 5274 5272 5269 5268 5267 5266 5265 5263 5262 5262
5454 5453 5452 5450 5448 5446 5444 5443 5441 5439 5437 5434 5432 5430 5428 5426 5424 5422 5420 5418 5416 5414 5412 5410 5408 5405 5403 5401 5398 5395 5391 5387 5383 5379 5375 5371 5367 5363 5358 5352 5347 5341 5335 5332 5329 5327 5325 5324 5322 5321 5319 5317 5315 5314 5312 5310 5308 5307 5305 5303 5301 5300 5297 5295 5293 5291 5289 5287 5285 5282 5280 5277 5274 5271 5269 5266 5264 5261 5260 5259 5258 5257 5255 5254 5254
5446 5445 5444 5442 5440 5438 5436 5434 5433 5431 5429 5427 5425 5423 5421 5418 5417 5415 5413 5411 5408 5407 5405 5403 5401 5398 5396 5394 5391 5388 5384 5381 5377 5372 5369 5365 5361 5357 5352 5347 5341 5336 5332 5329 5326 5324 5323 5321 5319 5317 5316 5314 5312 5310 5309 5307 5305 5303 5301 5299 5297 5295 5293 5290 5288 5285 5283 5281 5278 5276 5273 5271 5268 5265 5262 5260 5257 5255 5253 5252 5250 5249 5248 5247 5246
5439 5438 5436 5434 5432 5430 5428 5426 5425 5423 5421 5419 5417 5415 5413 5411 5409 5407 5405 5403 5401 5399 5398 5396 5394 5391 5389 5387 5385 5381 5378 5375 5371 5367 5363 5359 5356 5351 5347 5342 5336 5332 5328 5326 5323 5321 5319 5317 5315 5314 5312 5310 5309 5307 5305 5303 5301 5299 5297 5295 5293 5291 5288 5285 5283 5280 5277 5275 5272 5270 5267 5265 5262 5259 5256 5254 5252 5250 5247 5246 5245 5243 5242 5241 5240
5432 5430 5429 5426 5424 5422 5420 5419 5417 5415 5413 5411 5409 5407 5405 5403 5401 5400 5398 5396 5394 5392 5391 5389 5387 5385 5382 5379 5378 5375 5372 5368 5365 5361 5357 5354 5350 5346 5342 5337 5332 5327 5324 5322 5320 5318 5316 5314 5312 5310 5308 5307 5305 5303 5301 5299 5297 5295 5293 5290 5288 5286 5283 5280 5278 5275 5272 5270 5267 5264 5261 5259 5256 5253 5251 5249 5247 5245 5243 5242 5240 5238 5237 5235 5234
5424 5423 5421 5419 5417 5414 5412 5410 5409 5407 5405 5403 5401 5399 5397 5395 5393 5392 5390 5388 5386 5385 5383 5382 5379 5377 5375 5372 5370 5368 5365 5362 5358 5355 5351 5348 5344 5340 5336 5332 5327 5323 5320 5318 5316 5314 5312 5310 5308 5306 5305 5303 5301 5299 5297 5295 5293 5291 5289 5286 5283 5281 5278 5276 5273 5270 5267 5265 5262 5259 5257 5254 5251 5249 5246 5244 5242 5241 5239 5237 5235 5234 5232 5230 5228
5416 5414 5413 5411 5409 5407 5404 5402 5400 5399 5397 5395 5393 5391 5389 5386 5385 5383 5382 5380 5379 5377 5376 5374 5372 5370 5368 5365 5363 5361 5359 5356 5352 5349 5345 5342 5339 5335 5331 5327 5322 5319 5316 5314 5312 5310 5308 5307 5305 5303 5301 5299 5297 5295 5293 5291 5289 5287 5284 5282 5279 5276 5273 5271 5268 5266 5263 5260 5257 5255 5252 5250 5247 5244 5242 5239 5237 5236 5234 5232 5230 5228 5227 5225 5223
5408 5406 5404 5403 5401 5399 5396 5394 5392 5390 5388 5386 5384 5382 5380 5378 5376 5375 5373 5372 5371 5370 5368 5367 5366 5363 5361 5358 5356 5354 5352 5349 5346 5343 5340 5337 5333 5330 5326 5322 5318 5314 5312 5310 5308 5306 5304 5302 5300 5299 5297 5295 5293 5291 5289 5287 5285 5282 5280 5277 5275 5272 5269 5266 5264 5261 5258 5256 5253 5250 5248 5246 5243 5240 5238 5235 5233 5231 5229 5227 5225 5223 5221 5219 5217
5400 5398 5396 5394 5392 5390 5388 5386 5384 5382 5379 5378 5376 5374 5372 5371 5369 5367 5365 5364 5363 5362 5360 5359 5358 5356 5354 5351 5349 5347 5345 5342 5339 5336 5334 5331 5328 5324 5321 5317 5313 5310 5308 5306 5304 5302 5300 5298 5296 5294 5292 5291 5289 5287 5285 5283 5280 5278 5276 5273 5271 5268 5265 5262 5260 5257 5254 5252 5249 5247 5244 5242 5239 5237 5234 5232 5229 5227 5225 5223 5221 5219 5216 5214 5212
5392 5390 5388 5386 5383 5381 5379 5377 5375 5373 5371 5369 5367 5365 5364 5363 5361 5359 5358 5356 5355 5354 5353 5351 5350 5349 5347 5344 5342 5340 5338 5336 5333 5330 5328 5325 5322 5319 5315 5311 5308 5305 5303 5301 5299 5298 5296 5294 5292 5290 5288 5286 5284 5282 5280 5278 5276 5274 5272 5269 5267 5264 5261 5258 5256 5253 5251 5248 5246 5243 5240 5238 5235 5233 5231 5229 5226 5223 5221 5219 5217 5214 5212 5209 5207
5384 5381 5379 5377 5375 5373 5371 5369 5367 5365 5363 5361 5359 5357 5356 5355 5353 5352 5350 5348 5347 5346 5345 5343 5342 5341 5339 5337 5335 5333 5331 5329 5326 5324 5321 5319 5316 5313 5310 5306 5302 5299 5298 5296 5295 5293 5291 5289 5287 5285 5284 5282 5280 5278 5276 5274 5272 5270 5267 5265 5262 5260 5257 5254 5252 5249 5247 5245 5242 5239 5237 5234 5232 5229 5227 5225 5223 5220 5218 5215 5213 5211 5208 5205 5202
5375 5373 5371 5369 5366 5364 5363 5361 5358 5356 5354 5352 5351 5349 5348 5347 5346 5344 5342 5341 5340 5339 5337 5336 5334 5333 5332 5330 5328 5326 5324 5322 5320 5317 5315 5312 5310 5307 5304 5301 5297 5294 5292 5291 5289 5288 5286 5284 5283 5281 5279 5277 5276 5274 5271 5269 5267 5265 5263 5261 5258 5255 5253 5250 5248 5245 5243 5241 5238 5236 5233 5231 5228 5226 5224 5221 5219 5217 5215 5212 5210 5207 5205 5202 5199
5366 5364 5362 5360 5358 5356 5354 5352 5350 5348 5346 5344 5342 5341 5340 5339 5338 5336 5335 5333 5332 5331 5330 5328 5327 5325 5324 5323 5321 5319 5317 5314 5313 5311 5309 5306 5304 5301 5299 5296 5292 5289 5287 5286 5284 5283 5281 5280 5278 5276 5275 5273 5271 5269 5267 5265 5263 5261 5259 5256 5254 5251 5249 5246 5244 5241 5239 5237 5234 5232 5230 5228 5225 5223 5220 5218 5216 5214 5211 5209 5207 5204 5202 5199 5196
5358 5356 5354 5352 5350 5348 5346 5343 5341 5339 5338 5335 5334 5333 5331 5330 5330 5328 5327 5326 5324 5323 5322 5321 5319 5318 5317 5315 5313 5312 5310 5307 5305 5303 5302 5300 5298 5296 5293 5291 5287 5284 5282 5281 5279 5278 5276 5275 5273 5272 5270 5268 5266 5265 5263 5261 5259 5257 5254 5252 5250 5247 5245 5242 5240 5237 5235 5233 5231 5228 5226 5224 5222 5220 5217 5215 5213 5210 5208 5206 5204 5201 5199 5196 5194
5349 5347 5345 5343 5341 5339 5337 5335 5332 5331 5329 5327 5325 5324 5323 5322 5321 5320 5319 5318 5316 5315 5315 5313 5311 5310 5309 5307 5306 5304 5303 5300 5298 5296 5295 5293 5291 5289 5287 5285 5282 5279 5277 5275 5274 5272 5271 5269 5268 5267 5265 5264 5262 5260 5258 5256 5255 5252 5250 5248 5246 5243 5241 5238 5236 5233 5231 5229 5227 5225 5222 5220 5218 5216 5214 5212 5210 5208 5206 5203 5201 5199 5196 5194 5191
5340 5338 5336 5334 5332 5330 5327 5325 5323 5322 5320 5318 5317 5315 5314 5313 5312 5312 5311 5309 5308 5307 5306 5305 5303 5302 5301 5300 5298 5297 5296 5294 5291 5289 5288 5286 5284 5282 5281 5279 5276 5274 5271 5270 5268 5267 5265 5264 5263 5261 5260 5259 5257 5256 5254 5252 5250 5248 5246 5244 5241 5239 5237 5235 5232 5229 5227 5225 5223 5221 5219 5217 5215 5213 5210 5208 5206 5204 5202 5201 5198 5196 5194 5191 5189
5330 5328 5326 5324 5322 5320 5318 5316 5314 5312 5311 5309 5307 5306 5306 5304 5304 5303 5302 5301 5300 5299 5298 5297 5295 5294 5293 5292 5291 5289 5288 5286 5285 5283 5281 5279 5277 5276 5274 5272 5270 5268 5266 5265 5263 5262 5261 5259 5258 5256 5255 5254 5253 5251 5250 5248 5246 5244 5242 5240 5237 5235 5233 5231 5228 5226 5224 5222 5220 5218 5216 5214 5211 5209 5207 5205 5203 5201 5199 5197 5195 5193 5191 5189 5186
5321 5319 5317 5315 5312 5310 5308 5306 5304 5303 5301 5300 5299 5298 5297 5296 5295 5294 5293 5293 5292 5291 5290 5289 5287 5286 5285 5284 5283 5282 5281 5279 5278 5276 5275 5273 5271 5269 5267 5266 5264 5262 5260 5259 5258 5257 5256 5254 5253 5252 5250 5249 5248 5247 5245 5243 5242 5240 5238 5236 5234 5231 5229 5227 5225 5222 5220 5218 5216 5214 5213 5211 5209 5207 5205 5203 5200 5198 5196 5195 5193 5191 5189 5186 5184
5311 5309 5307 5304 5302 5300 5298 5296 5294 5293 5292 5291 5290 5289 5288 5287 5286 5286 5285 5284 5284 5282 5281 5280 5279 5278 5277 5276 5275 5274 5273 5272 5271 5269 5268 5266 5264 5263 5261 5259 5257 5256 5254 5254 5253 5252 5251 5250 5248 5247 5246 5244 5243 5242 5240 5239 5237 5235 5233 5231 5230 5227 5225 5223 5221 5219 5217 5214 5212 5210 5209 5207 5205 5203 5201 5200 5198 5195 5193 5192 5190 5188 5186 5184 5182
5301 5299 5296 5294 5292 5289 5287 5285 5284 5283 5282 5281 5281 5280 5279 5279 5278 5277 5277 5276 5275 5274 5273 5272 5270 5269 5269 5268 5267 5266 5265 5264 5263 5262 5261 5259 5258 5256 5255 5253 5251 5250 5248 5248 5247 5246 5245 5244 5243 5242 5241 5240 5238 5237 5236 5234 5232 5230 5229 5227 5225 5223 5221 5219 5217 5215 5213 5211 5208 5206 5205 5203 5202 5200 5198 5196 5194 5192 5190 5188 5187 5185 5183 5181 5179
5291 5289 5286 5283 5281 5279 5277 5276 5274 5273 5273 5272 5272 5271 5270 5270 5269 5269 5268 5267 5266 5265 5264 5263 5262 5261 5260 5259 5258 5258 5257 5256 5255 5255 5253 5252 5251 5250 5248 5247 5245 5243 5242 5241 5241 5240 5240 5239 5238 5237 5236 5235 5234 5232 5231 5229 5228 5226 5224 5222 5221 5219 5217 5215 5213 5211 5209 5207 5205 5202 5200 5199 5198 5196 5194 5193 5191 5189 5188 5186 5184 5182 5180 5178 5177
5281 5278 5276 5273 5271 5270 5268 5267 5266 5265 5264 5263 5263 5262 5262 5261 5260 5260 5259 5258 5257 5256 5255 5254 5253 5252 5251 5251 5250 5249 5248 5248 5247 5246 5246 5245 5244 5243 5242 5240 5239 5237 5236 5235 5235 5234 5234 5233 5233 5232 5231 5230 5229 5227 5226 5225 5223 5221 5220 5218 5216 5215 5213 5211 5209 5207 5206 5203 5201 5199 5196 5195 5193 5192 5190 5189 5187 5186 5184 5183 5181 5179 5177 5175 5174
5270 5268 5266 5264 5263 5261 5260 5258 5257 5256 5256 5255 5254 5253 5253 5252 5251 5250 5249 5248 5247 5246 5245 5245 5244 5243 5243 5242 5242 5241 5240 5240 5239 5238 5238 5237 5236 5235 5234 5233 5232 5231 5230 5229 5228 5228 5228 5227 5227 5226 5226 5225 5224 5223 5221 5220 5218 5217 5215 5214 5212 5210 5208 5207 5205 5203 5202 5200 5198 5195 5193 5191 5189 5187 5186 5184 5183 5182 5180 5179 5178 5176 5174 5173 5171
5261 5260 5258 5256 5254 5253 5252 5250 5249 5248 5247 5246 5245 5244 5243 5243 5242 5241 5240 5239 5238 5237 5236 5235 5235 5234 5234 5233 5233 5232 5232 5231 5231 5230 5229 5229 5228 5228 5227 5226 5225 5224 5223 5222 5222 5222 5221 5221 5221 5221 5220 5219 5218 5217 5216 5215 5214 5212 5211 5209 5208 5206 5204 5202 5201 5199 5197 5196 5194 5192 5189 5187 5185 5184 5182 5180 5179 5178 5176 5175 5174 5172 5171 5169 5168